Torna al catalogo

STARLINK-11354

AttivoComunicazioniVLEO
NORAD 61532·PAYLOAD·🇺🇸 United States

Lanciato Oct 15, 2024 da Vandenberg Space Force Base

Loading…

Prossimi Passaggi (prossime 24 ore)

TLE

AggiornatoSource: CelesTrak SupGP

Epoca: Sep 14, 2026, 22:30 UTC

1 61532C 24184A   26257.93798611 -.00000277  00000+0 -22842-5 0  2579
2 61532  53.1569  23.4258 0001047  71.8264 148.7897 15.69722067    12

Traccia STARLINK-11354 in tempo reale con AllMySat

Download on the App Store